Date,TemperatureHighF,TemperatureAvgF,TemperatureLowF,DewpointHighF,DewpointAvgF,DewpointLowF,HumidityHigh,HumidityAvg,HumidityLow,PressureMaxIn,PressureMinIn,WindSpeedMaxMPH,WindSpeedAvgMPH,GustSpeedMaxMPH,PrecipitationSumIn
2013-1-1,47.5,39.5,32.5,38.5,33.8,30.2,92,80,64,30.29,30.22,27,4,28,0.00
2013-1-2,54.0,40.3,30.6,40.3,34.4,28.6,93,81,58,30.27,30.16,15,2,15,0.00
2013-1-3,55.2,41.3,32.7,40.5,35.3,30.2,94,81,54,30.30,30.18,12,2,13,0.01
2013-1-4,56.7,45.5,35.1,40.8,37.7,33.4,95,76,52,30.31,30.20,13,2,13,0.00
2013-1-5,53.8,45.3,37.9,45.9,41.7,36.0,94,87,71,30.28,30.07,20,5,22,0.16
2013-1-6,46.9,42.3,37.2,44.8,41.1,36.5,98,96,92,30.22,30.07,12,2,13,0.30
2013-1-7,57.9,43.0,34.2,47.5,40.0,33.4,98,90,56,30.29,30.17,11,2,11,0.01
2013-1-8,60.3,47.2,40.5,47.1,41.7,39.0,97,83,51,30.24,30.14,19,5,19,0.01
2013-1-9,51.6,44.2,38.1,46.8,41.0,36.5,96,88,80,30.17,30.00,23,3,23,0.03
2013-1-10,48.9,39.7,34.9,37.4,34.4,30.2,96,83,50,30.22,30.09,15,2,16,0.04
2013-1-11,48.0,39.1,31.3,39.7,33.9,29.5,94,83,53,30.29,30.15,19,2,19,0.01
2013-1-12,40.5,35.9,31.8,31.5,29.5,27.0,86,78,61,30.21,30.15,5,-23,5,0.00
2013-1-13,45.3,36.4,27.7,28.8,22.6,14.2,93,61,34,30.29,30.19,17,3,18,0.00
2013-1-14,47.1,39.1,33.1,25.5,17.1,11.8,70,42,27,30.42,30.24,29,7,29,0.00
2013-1-15,52.7,38.6,30.9,32.5,28.6,24.8,90,69,41,30.50,30.41,15,2,15,0.00
2013-1-16,55.2,40.3,30.4,36.3,33.1,28.6,95,78,47,30.47,30.29,16,2,16,0.00
2013-1-17,59.5,42.8,32.5,39.0,35.5,31.3,96,78,45,30.30,30.17,16,2,16,0.01
2013-1-18,62.2,44.6,34.2,41.0,36.9,32.9,96,78,42,30.25,30.15,20,2,20,0.00
2013-1-19,61.2,45.0,34.9,41.7,37.5,33.3,95,78,46,30.27,30.18,16,3,20,0.01
2013-1-20,61.2,44.7,34.0,39.6,36.1,32.2,94,75,40,30.25,30.14,17,3,17,0.00
2013-1-21,62.1,44.6,33.4,42.8,36.8,30.6,91,76,46,30.21,30.11,15,3,15,0.00
2013-1-22,62.4,46.5,35.1,43.7,38.4,32.7,93,75,45,30.14,30.03,12,2,13,0.00
2013-1-23,53.6,47.3,43.0,47.1,43.2,34.0,96,86,49,30.10,29.97,14,3,14,0.04
2013-1-24,51.4,49.4,47.3,49.5,48.2,46.0,98,96,90,30.20,30.07,12,3,14,0.12
2013-1-25,63.9,53.9,48.9,57.7,52.0,48.4,99,94,79,30.20,30.05,16,2,16,0.18
2013-1-26,53.8,49.2,45.7,49.3,44.3,37.9,98,84,56,30.10,30.02,19,4,20,0.01
2013-1-27,54.0,45.3,38.1,41.0,37.9,32.2,93,77,49,30.18,30.08,15,2,15,0.00
2013-1-28,55.8,44.1,36.0,41.9,38.5,34.3,95,82,54,30.32,30.18,11,2,12,0.00
2013-1-29,57.4,45.1,37.0,44.2,40.2,36.3,97,84,57,30.38,30.28,12,2,12,0.01
2013-1-30,65.1,55.2,41.7,41.4,36.6,24.6,80,51,25,30.35,30.26,27,6,27,0.00
2013-1-31,64.6,48.1,37.2,47.3,40.7,34.3,94,77,52,30.30,30.19,12,2,12,0.00
2013-2-1,65.7,48.7,36.1,50.4,43.5,35.4,98,84,55,30.25,30.13,12,2,13,0.01
2013-2-2,60.4,48.8,42.8,51.1,45.2,40.6,96,88,71,30.30,30.22,13,2,13,0.00
2013-2-3,58.5,47.8,40.8,46.2,43.3,39.2,97,85,64,30.27,30.14,14,4,15,0.00
2013-2-4,63.0,47.3,37.9,50.9,43.3,36.3,97,87,62,30.19,30.08,15,3,15,0.01
2013-2-5,52.0,47.1,43.2,46.0,43.5,40.6,97,88,75,30.17,30.09,15,3,15,0.00
2013-2-6,59.2,45.4,36.1,44.8,40.1,34.5,96,83,52,30.22,30.13,13,2,13,0.00
2013-2-7,54.0,43.0,36.0,43.3,38.5,34.0,95,85,60,30.21,30.02,15,2,16,0.01
2013-2-8,52.2,41.7,35.8,41.2,38.0,34.2,96,87,65,30.02,29.95,19,2,19,0.05
2013-2-9,55.2,41.9,32.7,34.9,31.6,25.7,96,71,34,30.13,30.01,18,2,19,0.01
2013-2-10,57.4,43.5,33.4,38.8,33.8,30.0,89,71,41,30.14,30.04,18,3,20,0.00
2013-2-11,59.5,45.1,32.4,36.1,31.5,25.3,94,64,28,30.26,30.09,21,3,21,0.00
2013-2-12,60.8,46.1,36.1,39.9,35.1,31.3,88,68,40,30.37,30.26,14,2,14,0.00
2013-2-13,63.0,47.5,36.7,43.0,38.5,34.2,91,74,40,30.36,30.23,15,2,17,0.00
2013-2-14,66.7,51.6,36.7,42.4,39.4,35.1,95,67,38,30.26,30.17,24,4,24,0.00
2013-2-15,70.0,52.3,39.7,48.9,42.6,36.7,91,72,44,30.29,30.22,17,2,17,0.00
2013-2-16,67.1,51.5,40.8,49.5,43.3,38.3,92,75,47,30.26,30.06,15,2,15,0.00
2013-2-17,63.7,49.7,38.5,45.5,41.4,35.6,92,75,45,30.08,29.97,16,3,16,0.00
2013-2-18,48.2,44.1,38.1,42.6,39.5,36.1,95,84,69,30.06,29.99,16,5,16,0.00
2013-2-19,46.2,41.2,35.2,40.6,37.0,33.1,93,85,73,29.96,29.77,28,5,28,0.36
2013-2-20,55.6,42.7,32.5,40.6,35.9,31.1,96,79,49,30.09,29.85,13,2,13,0.00
2013-2-21,57.7,45.0,36.7,39.7,36.7,30.7,96,75,37,30.20,30.07,23,3,25,0.00
2013-2-22,61.9,46.8,35.4,42.1,36.9,32.5,91,71,39,30.28,30.19,15,3,15,0.00
2013-2-23,57.6,47.7,39.2,44.6,39.7,34.0,96,76,44,30.28,30.16,19,3,19,0.01
2013-2-24,58.5,46.8,37.2,35.8,28.1,21.7,89,52,26,30.28,30.18,29,5,29,0.00
2013-2-25,62.4,47.3,36.9,44.6,36.1,28.6,86,67,37,30.30,30.18,15,3,15,0.00
2013-2-26,52.5,41.1,34.3,35.8,30.3,20.1,90,69,30,30.23,30.19,20,3,22,0.00
2013-2-27,69.6,55.2,37.9,41.9,34.6,23.9,79,49,21,30.39,30.28,15,3,15,0.00
2013-2-28,67.8,52.5,41.5,51.6,45.1,38.1,94,78,54,30.46,30.38,17,3,17,0.00
2013-3-1,71.4,55.6,43.0,51.3,47.0,42.1,98,76,46,30.45,30.25,15,2,16,0.01
2013-3-2,73.8,57.9,47.3,52.3,47.6,37.6,93,72,29,30.26,30.06,16,3,18,0.00
2013-3-3,64.4,54.6,46.2,49.6,46.3,42.8,90,75,49,30.11,30.03,18,5,18,0.00
2013-3-4,61.5,49.0,41.5,48.0,43.7,39.4,94,83,57,30.16,30.05,15,3,16,0.00
2013-3-5,57.9,49.1,39.4,42.4,40.3,36.1,95,73,48,30.08,29.88,44,13,44,0.00
2013-3-6,54.0,48.0,39.7,45.1,40.5,36.9,93,76,55,30.08,29.88,41,8,41,0.06
2013-3-7,57.4,45.9,37.0,44.4,38.6,28.9,95,79,35,30.01,29.86,22,4,22,0.22
2013-3-8,56.8,48.0,40.6,44.1,41.9,39.2,97,81,53,30.09,29.83,20,4,20,0.26
2013-3-9,64.9,51.9,43.9,43.3,41.1,37.4,87,69,38,30.32,30.09,21,3,21,0.00
2013-3-10,68.0,53.6,38.7,42.6,36.0,27.7,92,58,24,30.34,30.25,18,-5,18,0.00
2013-3-11,71.8,54.4,41.2,47.5,41.9,37.2,88,67,34,30.28,30.12,14,2,14,0.00
2013-3-12,75.4,57.3,43.9,52.9,46.9,41.2,91,71,39,30.15,30.06,15,3,16,0.00
2013-3-13,77.0,60.2,46.9,56.1,50.4,44.6,93,73,42,30.17,30.06,19,3,19,0.00
2013-3-14,74.3,59.4,49.8,57.4,50.9,43.9,94,75,39,30.16,30.09,13,3,13,0.00
2013-3-15,71.8,56.2,45.5,54.3,45.8,39.2,85,69,46,30.14,30.06,12,4,12,0.00
2013-3-16,71.8,56.0,43.0,53.2,45.0,34.3,95,70,26,30.12,30.04,17,5,17,0.00
2013-3-17,69.3,53.1,42.3,49.1,43.1,38.7,93,71,35,30.15,30.04,16,3,16,0.00
2013-3-18,65.7,53.8,42.6,48.9,43.2,36.9,88,69,43,30.14,30.04,13,3,13,0.00
2013-3-19,71.6,55.7,45.9,50.5,43.3,38.1,91,65,37,30.15,30.06,17,4,17,0.06
2013-3-20,64.9,55.6,49.5,54.5,50.0,43.3,96,83,51,30.14,30.07,19,5,19,0.12
2013-3-21,63.1,51.9,41.2,48.7,43.1,38.7,91,73,47,30.14,30.01,18,3,20,0.00
2013-3-22,66.7,53.1,39.0,42.3,27.9,8.6,95,46,12,30.11,30.01,25,5,31,0.00
2013-3-23,67.5,56.2,46.8,41.7,26.9,17.6,76,35,19,30.14,30.04,24,5,24,0.00
2013-3-24,71.6,55.1,41.7,47.3,40.8,34.2,80,61,37,30.10,29.97,12,4,15,0.00
2013-3-25,61.3,52.7,44.1,46.0,42.8,37.9,86,70,54,30.03,29.94,21,7,21,0.00
2013-3-26,70.0,53.6,43.3,50.0,44.6,40.6,91,73,46,30.02,29.93,15,3,16,0.00
2013-3-27,64.0,54.7,46.6,52.5,48.1,43.3,91,79,59,30.03,29.96,20,5,21,0.00
2013-3-28,70.2,59.8,53.2,54.9,51.3,48.4,91,75,53,30.09,30.01,13,4,13,0.00
2013-3-29,76.1,60.6,47.5,54.3,51.0,46.4,97,74,41,30.09,30.00,17,3,17,0.00
2013-3-30,69.8,59.6,53.8,54.0,51.0,43.7,91,75,43,30.06,29.97,25,8,27,0.04
2013-3-31,66.0,57.7,50.2,52.7,48.9,42.4,92,74,44,30.07,29.98,29,9,29,0.03
2013-4-1,65.8,56.5,49.6,52.7,50.3,45.9,96,81,54,30.16,30.05,23,4,23,0.13
2013-4-2,70.2,56.1,44.4,54.1,49.1,42.8,96,79,50,30.19,30.08,14,3,16,0.00
2013-4-3,77.7,59.2,45.5,55.0,49.8,44.4,97,74,40,30.15,29.97,16,4,17,0.00
2013-4-4,63.1,57.1,50.2,55.0,51.8,46.0,91,83,72,30.13,29.99,21,7,22,0.14
2013-4-5,66.4,56.6,50.4,53.1,50.1,47.5,91,80,59,30.20,30.12,13,2,14,0.00
2013-4-6,66.0,55.5,48.0,54.5,50.1,46.0,93,82,60,30.21,30.14,13,3,13,0.00
2013-4-7,65.5,53.8,45.3,54.5,48.0,43.3,95,82,64,30.19,29.88,24,4,24,0.07
2013-4-8,65.8,52.8,43.5,48.6,38.6,24.4,94,63,22,30.03,29.83,32,5,33,0.12
2013-4-9,72.0,58.4,43.9,43.7,34.1,25.3,93,45,18,30.10,30.02,30,7,31,0.00
2013-4-10,83.3,62.8,46.4,52.5,45.7,39.7,86,58,29,30.18,30.06,19,6,20,0.00
2013-4-11,70.9,57.9,48.4,50.5,47.2,43.3,93,70,40,30.08,29.86,22,5,22,0.00
2013-4-12,77.9,58.0,44.2,51.1,45.3,40.1,91,67,29,29.92,29.83,16,4,17,0.00
2013-4-13,69.1,55.4,45.5,49.3,43.5,39.4,88,66,42,29.92,29.85,23,6,23,0.00
2013-4-14,67.3,52.4,39.7,46.2,40.8,31.8,94,68,30,29.95,29.88,17,4,17,0.00
2013-4-15,54.1,48.3,43.2,48.2,40.8,32.7,93,77,50,29.97,29.87,26,5,26,0.03
2013-4-16,63.3,49.5,36.1,41.4,36.4,29.3,95,65,32,30.16,29.97,19,3,19,0.00
2013-4-17,66.4,54.8,41.2,40.8,30.4,20.8,87,43,18,30.25,30.16,28,6,30,0.00
2013-4-18,74.3,57.6,41.7,43.5,35.8,25.3,82,50,20,30.27,30.19,22,4,22,0.00
2013-4-19,80.8,62.7,46.9,51.4,44.3,39.6,80,56,24,30.25,30.08,18,3,19,0.00
2013-4-20,79.3,63.0,49.3,48.6,44.3,35.8,90,56,24,30.11,29.98,27,5,27,0.00
2013-4-21,86.4,66.7,48.6,51.8,43.4,31.1,83,51,15,30.04,29.93,18,3,18,0.00
2013-4-22,86.7,69.8,53.8,50.7,43.7,34.3,82,45,18,29.98,29.84,19,4,20,0.00
2013-4-23,82.6,67.5,54.1,50.7,34.1,20.3,76,35,13,29.93,29.84,27,7,27,0.00
2013-4-24,71.8,57.9,45.0,52.3,46.3,39.6,88,67,39,29.96,29.83,19,6,19,0.00
2013-4-25,70.9,57.9,48.0,52.5,48.6,44.6,90,73,48,30.14,29.95,18,5,19,0.00
2013-4-26,72.7,58.0,46.9,53.4,49.0,43.9,93,74,48,30.22,30.13,15,6,16,0.00
2013-4-27,78.3,60.4,46.9,54.9,49.8,45.3,95,72,41,30.23,30.07,17,7,17,0.00
2013-4-28,88.9,66.8,49.6,57.6,51.3,44.4,88,62,28,30.08,29.89,13,4,14,0.00
2013-4-29,89.6,72.8,56.7,55.6,48.2,39.4,86,48,22,29.91,29.76,19,5,19,0.00
2013-4-30,81.5,68.3,53.1,52.5,39.5,8.2,85,44,8,29.84,29.78,28,5,28,0.00
2013-5-1,83.8,72.0,61.3,47.1,25.5,11.5,54,19,10,30.08,29.83,29,9,29,0.00
2013-5-2,90.9,72.8,54.9,47.5,34.4,18.0,72,31,11,30.15,30.08,17,4,17,0.00
2013-5-3,90.3,70.9,54.7,43.7,37.2,27.1,59,34,12,30.11,29.81,18,3,18,0.00
2013-5-4,88.3,70.3,54.3,51.3,40.6,27.7,72,40,12,29.81,29.54,24,6,25,0.00
2013-5-5,68.7,58.1,53.6,47.8,46.1,44.4,79,65,43,29.69,29.59,33,17,44,0.00
2013-5-6,66.0,62.3,57.9,51.3,48.8,45.3,72,62,50,29.97,29.85,21,6,21,0.00
2013-5-7,71.2,61.0,52.5,52.2,48.8,45.9,85,66,46,30.06,29.96,16,3,16,0.00
2013-5-8,69.8,57.8,49.3,53.8,49.0,44.2,89,74,51,30.16,30.05,17,4,18,0.00
2013-5-9,71.1,57.8,50.5,53.1,49.4,46.8,90,75,50,30.19,30.09,19,4,19,0.00
2013-5-10,75.0,60.3,49.8,56.3,51.2,47.1,91,74,50,30.20,30.10,20,6,22,0.00
2013-5-11,91.8,69.8,50.5,56.8,52.4,47.1,94,60,23,30.15,30.03,15,5,15,0.00
2013-5-12,85.1,69.2,56.5,55.6,49.3,34.9,80,52,22,30.13,30.04,18,6,18,0.00
2013-5-13,81.0,66.1,55.2,55.6,49.3,39.9,75,56,36,30.09,29.96,20,8,20,0.00
2013-5-14,77.7,63.8,53.1,55.4,48.2,38.1,86,59,26,30.03,29.93,25,10,25,0.00
2013-5-15,68.9,58.7,49.5,48.2,44.0,37.0,84,60,36,30.08,30.01,19,8,20,0.00
2013-5-16,68.2,58.0,53.2,53.8,49.2,45.5,90,74,50,30.06,29.99,17,5,19,0.01
2013-5-17,69.8,57.4,48.2,47.3,44.6,37.4,82,64,34,30.11,30.00,20,4,20,0.00
2013-5-18,74.1,58.6,43.3,51.1,45.1,39.2,90,64,35,30.15,30.09,19,5,19,0.00
2013-5-19,82.6,65.3,49.3,50.4,45.1,39.0,89,54,26,30.13,29.98,19,4,20,0.00
2013-5-20,88.7,69.8,52.3,48.2,39.4,29.8,78,39,14,30.01,29.93,22,4,22,0.00
2013-5-21,69.4,59.2,49.3,49.8,43.5,29.5,78,58,24,30.01,29.91,22,7,22,0.00
2013-5-22,66.0,52.6,40.8,43.0,36.9,25.0,89,60,27,30.01,29.94,17,4,20,0.00
2013-5-23,67.5,54.3,46.9,43.7,41.0,38.3,82,63,37,30.03,29.95,31,6,31,0.00
2013-5-24,72.3,56.4,44.4,45.0,39.9,27.9,81,57,21,30.01,29.96,21,6,22,0.00
2013-5-25,68.2,55.6,47.5,48.2,42.5,37.8,84,63,34,30.09,29.99,21,7,21,0.00
2013-5-26,67.8,57.8,51.8,52.3,49.8,46.8,94,76,50,30.16,30.08,20,5,20,0.00
2013-5-27,63.7,57.8,50.4,54.3,50.4,45.3,90,77,66,30.16,30.01,14,3,15,0.01
2013-5-28,71.2,60.6,54.9,57.0,53.0,48.4,95,78,53,30.02,29.93,20,4,20,0.02
2013-5-29,70.0,60.3,52.5,55.0,49.7,45.7,84,69,51,29.99,29.93,18,6,20,0.00
2013-5-30,79.5,60.7,44.6,48.0,42.8,8.8,88,58,9,30.00,29.94,23,-1,23,0.00
2013-5-31,88.2,68.6,50.2,50.2,43.0,36.3,71,44,22,30.02,29.92,20,4,20,0.00
2013-6-1,93.6,74.8,56.3,57.7,47.3,40.6,71,43,19,29.94,29.77,18,5,19,0.00
2013-6-2,83.8,69.0,57.0,55.6,51.1,46.9,78,55,28,29.79,29.66,19,8,20,0.00
2013-6-3,80.8,64.8,51.1,55.9,51.4,47.5,89,65,38,29.85,29.70,20,10,21,0.00
2013-6-4,77.2,63.7,54.1,56.3,52.3,49.6,86,68,47,29.96,29.84,21,10,21,0.00
2013-6-5,74.7,62.5,54.1,54.1,52.0,49.8,89,70,47,29.99,29.90,24,10,24,0.00
2013-6-6,80.8,65.2,52.9,56.8,53.0,49.6,90,67,43,29.95,29.84,20,9,22,0.00
2013-6-7,97.2,72.1,54.3,64.9,57.1,50.9,90,64,29,29.88,29.73,19,7,20,0.00
2013-6-8,101.8,78.8,65.1,61.5,56.8,51.8,75,51,20,29.78,29.67,24,8,26,0.00
2013-6-9,77.5,66.9,58.3,58.6,54.9,52.5,83,67,46,29.87,29.75,26,10,26,0.00
2013-6-10,73.4,62.7,56.5,53.8,51.8,49.8,83,69,47,29.94,29.83,27,10,27,0.00
2013-6-11,75.4,64.1,55.6,57.2,53.7,50.5,86,70,50,29.97,29.90,18,6,18,0.00
2013-6-12,80.6,65.1,55.8,53.6,45.9,26.6,85,55,14,30.02,29.90,17,9,26,0.00
2013-6-13,80.6,61.5,46.2,47.1,41.5,37.0,76,51,25,30.09,30.01,19,4,21,0.00
2013-6-14,85.6,69.7,52.7,47.3,40.2,32.5,71,39,18,30.01,29.83,18,4,19,0.00
2013-6-15,76.5,64.1,54.1,54.5,47.7,40.8,83,57,34,30.01,29.82,21,10,22,0.00
2013-6-16,81.0,65.7,52.9,51.4,46.4,39.4,76,53,23,30.10,30.00,21,9,21,0.00
2013-6-17,74.3,62.1,54.1,55.6,51.1,46.6,84,68,46,30.10,30.05,21,7,21,0.00
2013-6-18,66.9,59.0,52.9,52.3,48.6,42.4,89,70,45,30.06,30.03,22,4,22,0.00
2013-6-19,73.9,59.9,47.7,51.4,47.2,40.8,91,65,33,30.06,30.01,20,5,23,0.00
2013-6-20,79.2,62.2,48.9,50.5,46.0,39.6,86,59,30,30.03,29.94,20,5,20,0.00
2013-6-21,84.0,65.2,48.7,51.1,44.7,37.2,78,51,21,29.99,29.92,17,6,17,0.00
2013-6-22,88.7,69.3,53.6,52.5,43.3,33.4,77,43,19,29.94,29.85,26,7,26,0.00
2013-6-23,70.0,63.3,56.7,59.7,56.0,51.1,91,78,64,29.90,29.82,19,7,19,0.00
2013-6-24,68.4,63.8,60.8,60.4,59.0,57.6,92,85,73,29.91,29.79,20,-3,20,0.02
2013-6-25,76.3,69.0,62.8,63.5,60.4,55.6,86,74,63,29.98,29.89,27,11,27,0.02
2013-6-26,85.3,71.6,61.0,64.8,60.7,57.4,92,71,48,30.05,29.96,20,5,20,0.00
2013-6-27,92.8,74.5,58.3,63.1,58.0,51.1,91,61,26,30.07,30.01,14,4,14,0.00
2013-6-28,99.7,81.0,63.7,61.7,54.4,45.1,72,44,20,30.04,29.89,20,4,20,0.00
2013-6-29,101.7,83.3,65.5,57.9,52.1,43.0,65,38,14,29.93,29.79,18,-2,18,0.00
2013-6-30,97.7,79.4,66.6,57.9,54.2,48.2,65,44,20,29.84,29.75,20,9,20,0.00
2013-7-1,98.8,80.7,64.9,63.7,53.9,45.5,71,43,19,29.83,29.79,22,8,22,0.00
2013-7-2,98.6,81.8,70.2,63.3,58.6,52.9,68,47,27,29.88,29.80,23,10,24,0.00
2013-7-3,97.3,78.0,62.1,65.1,59.0,54.5,84,56,25,29.88,29.75,23,8,23,0.00
2013-7-4,102.6,82.9,70.3,65.5,57.4,46.8,74,46,19,29.76,29.67,22,7,22,0.00
2013-7-5,80.1,71.2,59.0,57.2,52.8,43.5,78,53,35,29.77,29.69,23,1,23,0.00
2013-7-6,82.6,66.1,54.5,55.6,52.6,50.0,86,65,37,29.79,29.71,21,11,22,0.00
2013-7-7,84.9,66.7,50.2,55.8,52.0,45.1,89,63,29,29.85,29.76,21,9,21,0.00
2013-7-8,86.4,67.6,54.5,54.5,51.1,41.4,89,62,23,29.93,29.85,22,9,22,0.00
2013-7-9,97.9,75.7,57.6,60.6,52.7,40.1,85,50,15,30.01,29.91,18,6,18,0.00
2013-7-10,86.4,70.5,56.8,57.9,54.4,45.0,90,60,28,29.96,29.87,22,10,22,0.00
2013-7-11,81.0,65.4,54.7,56.3,53.1,48.4,92,68,36,29.93,29.86,20,10,21,0.00
2013-7-12,86.2,67.1,52.7,54.9,51.0,46.6,89,60,28,29.92,29.87,22,9,24,0.00
2013-7-13,90.0,72.5,55.9,54.5,46.9,25.5,80,45,14,29.95,29.88,20,8,20,0.00
2013-7-14,84.4,69.1,57.4,54.7,51.9,45.0,81,57,27,29.97,29.88,18,9,18,0.00
2013-7-15,76.8,62.6,54.1,54.9,52.6,50.9,92,72,42,29.91,29.81,21,10,21,0.00
2013-7-16,73.8,61.8,54.1,55.0,52.5,49.6,90,73,48,30.04,29.86,23,8,23,0.00
2013-7-17,79.0,65.4,55.8,56.3,53.9,50.0,86,69,40,30.10,30.02,19,6,20,0.00
2013-7-18,90.0,68.8,51.8,56.5,51.2,31.5,96,61,15,30.06,29.93,18,7,18,0.00
2013-7-19,88.5,69.7,54.0,58.1,54.0,47.7,90,61,28,29.94,29.81,17,9,19,0.00
2013-7-20,88.0,69.1,54.7,57.4,55.0,51.8,93,65,31,29.84,29.72,23,11,23,0.00
2013-7-21,86.4,71.2,58.3,56.8,53.6,47.8,85,57,29,29.85,29.75,24,12,25,0.00
2013-7-22,81.5,70.7,58.6,59.0,55.4,48.0,85,60,41,29.94,29.84,23,10,24,0.00
2013-7-23,87.3,72.7,63.1,59.0,56.7,52.3,82,59,32,29.98,29.92,22,8,22,0.00
2013-7-24,91.2,74.9,61.0,57.4,51.6,39.6,82,50,19,29.97,29.89,16,6,16,0.00
2013-7-25,87.6,73.4,61.5,58.3,53.0,42.3,79,51,30,30.01,29.91,20,8,20,0.00
2013-7-26,90.7,71.2,57.0,57.9,55.2,50.0,91,61,27,30.07,29.98,22,10,22,0.00
2013-7-27,83.7,69.0,57.2,58.6,55.6,48.6,92,66,32,30.02,29.83,22,4,23,0.00
2013-7-28,81.0,66.5,56.8,57.2,54.4,52.3,89,67,43,29.87,29.79,23,12,25,0.00
2013-7-29,81.3,65.1,53.6,55.9,52.9,48.7,89,67,38,30.00,29.83,24,8,25,0.00
2013-7-30,81.3,65.6,52.5,56.3,53.1,48.9,93,67,36,30.09,30.00,20,8,22,0.00
2013-7-31,83.7,65.6,55.4,54.5,50.9,42.8,88,63,25,30.07,30.00,19,8,19,0.00
2013-8-1,79.2,63.1,48.9,52.5,47.6,37.0,80,59,22,30.07,29.98,20,6,20,0.00
2013-8-2,81.7,65.7,53.4,53.2,49.2,39.2,81,58,24,29.98,29.89,21,8,21,0.00
2013-8-3,82.6,64.9,51.6,56.7,52.3,49.1,94,67,33,29.97,29.89,19,10,21,0.00
2013-8-4,80.2,63.4,54.1,55.4,53.0,48.2,92,72,36,30.01,29.93,21,10,21,0.00
2013-8-5,78.8,63.8,54.7,56.5,53.6,51.3,92,72,41,30.02,29.93,20,8,21,0.00
2013-8-6,75.7,62.1,54.1,57.2,53.4,51.3,92,75,44,30.05,29.98,20,7,20,0.00
2013-8-7,76.8,63.8,55.8,56.7,53.9,48.0,89,72,42,30.10,30.03,19,6,19,0.00
2013-8-8,78.4,63.2,55.6,58.5,54.2,51.4,92,75,44,30.04,29.92,17,4,18,0.00
2013-8-9,75.0,63.5,55.2,58.3,54.1,51.3,90,73,49,30.00,29.92,20,7,20,0.00
2013-8-10,82.6,64.9,55.8,57.9,55.2,53.1,93,74,39,30.05,29.99,15,4,16,0.00
2013-8-11,84.6,66.9,56.3,58.3,53.8,45.3,94,68,27,30.03,29.94,16,6,19,0.00
2013-8-12,86.0,69.6,55.8,58.1,50.5,34.0,87,55,20,29.98,29.93,20,6,20,0.00
2013-8-13,92.1,72.3,55.9,54.0,48.3,37.8,80,48,16,29.98,29.90,15,6,16,0.00
2013-8-14,86.4,69.3,57.2,59.2,50.7,37.9,81,55,18,29.97,29.91,19,10,24,0.00
2013-8-15,88.2,70.9,56.1,62.1,58.8,52.2,91,68,38,29.96,29.91,17,5,18,0.00
2013-8-16,89.6,72.4,59.9,63.7,56.0,41.5,89,60,32,29.98,29.92,16,4,17,0.00
2013-8-17,84.6,70.6,62.1,58.1,53.2,44.2,74,55,36,29.97,29.87,27,9,27,0.00
2013-8-18,99.7,77.3,58.3,64.8,55.5,49.6,83,52,20,29.88,29.75,14,4,15,0.00
2013-8-19,96.1,78.8,67.6,62.1,58.0,51.4,70,51,27,29.87,29.78,20,5,20,0.00
2013-8-20,88.9,72.1,61.3,59.7,56.4,52.2,86,61,29,29.87,29.78,23,10,26,0.00
2013-8-21,82.8,66.3,57.6,56.7,54.4,50.7,88,68,35,29.93,29.83,21,8,21,0.00
2013-8-22,79.0,64.1,57.0,57.7,54.9,52.5,91,74,46,29.96,29.88,17,6,18,0.00
2013-8-23,79.9,65.2,55.6,56.8,53.5,49.1,90,69,41,29.94,29.82,21,6,22,0.00
2013-8-24,81.7,66.9,54.9,58.3,53.8,47.7,87,65,42,29.91,29.85,18,5,18,0.00
2013-8-25,82.8,68.5,59.5,61.5,58.7,55.8,92,73,43,29.94,29.87,24,5,24,0.00
2013-8-26,81.7,67.3,58.8,59.7,56.2,52.9,89,70,40,30.00,29.90,16,4,16,0.00
2013-8-27,86.0,68.4,56.3,57.6,52.8,48.2,82,60,30,29.91,29.81,16,5,16,0.00
2013-8-28,85.5,68.9,56.7,61.0,56.3,50.7,86,66,33,29.94,29.86,20,4,20,0.00
2013-8-29,84.6,69.2,58.8,62.6,59.0,54.7,95,73,38,30.04,29.94,12,4,16,0.00
2013-8-30,93.6,72.9,57.9,61.3,56.5,46.9,89,62,23,30.04,29.91,15,5,16,0.00
2013-8-31,84.4,71.8,62.8,57.0,53.5,48.7,73,54,30,29.97,29.88,20,9,20,0.00
2013-9-1,83.5,70.4,62.1,59.2,55.8,51.8,78,62,39,29.94,29.86,18,6,18,0.00
2013-9-2,82.8,69.4,63.0,62.6,59.6,56.1,87,72,45,29.96,29.88,18,4,18,0.00
2013-9-3,79.5,67.3,58.3,59.7,53.6,46.8,85,64,36,30.00,29.94,18,5,18,0.00
2013-9-4,80.1,65.7,54.0,57.0,53.6,46.6,90,68,33,30.03,29.96,20,-3,20,0.00
2013-9-5,79.2,66.5,59.0,55.8,54.0,46.2,83,67,34,30.02,29.96,16,6,16,0.00
2013-9-6,90.3,71.0,52.9,56.5,49.8,45.0,85,53,22,30.00,29.83,21,4,21,0.00
2013-9-7,94.5,76.2,60.4,52.9,48.6,42.8,69,42,18,29.87,29.79,15,3,15,0.00
2013-9-8,92.8,75.2,61.2,63.0,54.7,46.6,78,51,27,29.86,29.74,15,4,15,0.00
2013-9-9,97.5,77.1,63.9,58.6,51.3,41.5,70,44,17,29.80,29.69,16,4,16,0.00
2013-9-10,81.3,69.7,60.4,60.1,54.9,43.2,83,61,40,29.88,29.72,23,10,23,0.00
2013-9-11,78.3,64.8,57.0,59.0,55.5,52.9,88,73,44,29.98,29.88,17,6,17,0.00
2013-9-12,79.5,66.1,58.5,60.8,57.7,54.9,92,76,48,29.98,29.87,20,5,20,0.00
2013-9-13,80.4,66.1,57.6,59.7,55.8,49.1,94,72,44,29.91,29.77,22,7,22,0.00
2013-9-14,78.8,62.6,52.7,58.5,53.6,49.5,90,74,47,29.83,29.75,18,4,18,0.00
2013-9-15,80.1,63.6,50.7,57.9,53.6,47.3,91,72,43,29.87,29.80,18,3,18,0.00
2013-9-16,81.9,65.2,54.5,59.7,54.3,49.6,94,71,34,29.90,29.80,21,6,21,0.00
2013-9-17,71.1,62.3,56.5,54.7,53.2,50.0,83,73,49,29.90,29.85,23,7,23,0.00
2013-9-18,82.4,65.0,51.8,52.0,47.6,41.9,92,59,28,29.91,29.82,21,4,23,0.00
2013-9-19,89.4,69.7,54.0,50.5,44.7,37.8,73,46,17,29.86,29.74,16,3,16,0.00
2013-9-20,73.9,64.6,56.5,58.8,52.3,40.6,81,65,47,29.87,29.76,16,5,20,0.00
2013-9-21,66.0,61.0,56.1,57.9,55.5,52.9,94,83,64,29.91,29.80,26,8,26,0.16
2013-9-22,72.1,60.5,52.5,56.3,53.3,50.0,96,79,50,30.02,29.91,12,2,15,0.16
2013-9-23,80.4,64.1,51.3,59.0,54.4,49.3,95,74,39,30.03,29.93,16,3,16,0.00
2013-9-24,72.0,62.6,56.7,56.8,53.3,48.6,90,73,45,30.01,29.93,22,6,26,0.00
2013-9-25,65.8,57.6,50.0,51.3,48.3,43.3,95,73,50,29.94,29.84,20,3,20,0.00
2013-9-26,72.7,57.6,46.6,48.7,43.0,36.5,95,63,29,30.00,29.84,17,2,18,0.00
2013-9-27,76.3,60.6,48.0,45.0,40.2,33.3,82,52,22,30.10,30.00,19,4,19,0.00
2013-9-28,84.9,64.8,50.7,51.4,39.9,31.5,75,45,16,30.10,29.99,15,2,16,0.00
2013-9-29,77.2,63.8,52.3,57.2,53.1,43.5,86,69,47,30.11,30.04,16,4,17,0.00
2013-9-30,76.1,64.4,56.1,60.1,56.8,53.4,92,78,54,30.08,29.97,17,3,18,0.00
2013-10-1,74.7,60.7,52.2,56.8,47.4,41.5,92,64,35,30.01,29.92,20,5,20,0.00
2013-10-2,78.6,60.4,50.0,51.8,46.3,39.0,85,63,29,30.02,29.93,16,4,16,0.00
2013-10-3,70.9,60.3,46.4,45.3,34.7,24.6,90,45,18,30.06,29.94,31,6,32,0.00
2013-10-4,76.3,66.3,58.5,34.7,29.9,25.9,33,26,18,30.11,29.94,32,9,32,0.00
2013-10-5,83.3,65.9,51.1,43.9,33.5,22.3,63,35,11,30.20,30.10,13,3,13,0.00
2013-10-6,85.5,66.5,52.0,45.5,36.7,19.8,64,39,9,30.13,30.01,15,3,15,0.00
2013-10-7,83.7,66.1,53.8,44.8,36.9,24.8,62,38,14,30.00,29.88,13,3,18,0.00
2013-10-8,75.6,60.3,51.4,46.4,38.1,29.8,78,45,30,29.90,29.72,21,5,21,0.00
2013-10-9,66.9,55.9,45.7,47.5,44.8,41.2,87,68,43,29.78,29.63,16,4,16,0.00
2013-10-10,73.9,59.3,48.7,49.6,43.8,37.4,79,60,31,30.01,29.77,16,5,16,0.00
2013-10-11,71.8,56.8,45.3,50.2,46.7,42.1,91,71,39,30.07,29.98,15,4,15,0.00
2013-10-12,73.6,57.4,46.6,48.0,44.0,34.9,88,65,27,30.01,29.91,18,5,18,0.00
2013-10-13,72.1,57.7,46.0,47.7,42.4,37.4,91,61,30,30.08,29.94,20,4,21,0.00
2013-10-14,77.2,60.5,46.9,44.8,39.1,33.3,81,50,24,30.12,30.00,17,3,17,0.00
2013-10-15,76.8,62.4,47.1,43.0,35.6,30.6,70,40,21,30.05,29.96,21,4,21,0.00
2013-10-16,82.2,64.1,50.2,43.5,38.0,32.5,68,42,17,30.09,30.01,14,2,14,0.00
2013-10-17,81.3,63.1,50.2,43.2,38.1,29.1,72,45,17,30.09,29.97,14,2,14,0.00
2013-10-18,84.0,63.6,50.5,48.9,40.0,31.6,66,46,17,30.05,29.97,13,2,13,0.00
2013-10-19,83.8,64.1,50.5,50.4,43.2,34.2,76,52,18,30.07,29.99,14,3,14,0.00
2013-10-20,85.3,63.1,50.2,55.2,44.1,32.9,75,54,18,30.03,29.90,13,2,13,0.00
2013-10-21,77.2,60.5,48.7,54.5,46.4,37.0,91,62,32,29.99,29.91,11,4,12,0.00
2013-10-22,83.3,60.8,46.6,54.9,48.0,42.3,91,66,29,30.01,29.91,14,3,14,0.00
2013-10-23,75.2,57.7,47.1,53.6,49.1,42.8,95,75,42,29.97,29.88,16,6,16,0.00
2013-10-24,62.1,52.3,47.5,50.2,47.8,44.2,95,85,63,30.12,29.97,17,6,17,0.00
2013-10-25,73.2,56.6,44.8,53.1,47.7,42.6,95,75,41,30.17,30.08,13,3,14,0.00
2013-10-26,79.5,60.4,47.1,52.7,45.6,39.9,87,63,26,30.15,30.02,17,3,18,0.00
2013-10-27,64.0,54.4,48.6,51.1,46.6,40.1,94,76,54,30.04,29.73,24,8,24,0.00
2013-10-28,60.1,53.5,49.3,47.8,45.5,41.0,89,75,52,29.87,29.69,22,7,22,0.00
2013-10-29,63.1,54.1,45.9,47.5,45.1,41.5,88,72,51,30.06,29.87,16,4,16,0.00
2013-10-30,65.7,52.8,42.4,47.5,43.8,40.3,93,74,46,30.15,30.06,14,2,14,0.00
2013-10-31,71.2,55.5,43.9,47.8,42.9,40.1,89,66,34,30.19,30.07,17,2,19,0.00
2013-11-1,75.7,58.1,46.0,46.4,42.1,37.8,80,59,31,30.15,30.02,12,2,12,0.00
2013-11-2,73.8,57.2,46.4,51.3,43.6,35.6,85,63,37,30.04,29.92,19,4,20,0.00
2013-11-3,62.2,54.4,45.9,43.9,30.1,20.8,87,43,22,30.04,29.92,29,4,29,0.00
2013-11-4,66.4,52.4,39.9,39.6,32.8,25.0,78,51,22,30.08,29.91,20,3,21,0.00
2013-11-5,70.0,58.3,48.2,39.6,31.8,25.7,65,38,23,30.24,30.08,23,4,23,0.00
2013-11-6,70.3,56.9,45.9,42.4,37.8,33.4,74,52,27,30.26,30.17,15,2,15,0.00
2013-11-7,77.0,58.4,49.3,45.0,38.3,31.1,69,51,20,30.18,30.07,13,2,14,0.00
2013-11-8,75.4,57.8,46.0,50.5,44.1,36.7,84,63,36,30.09,29.96,13,2,13,0.00
2013-11-9,74.3,57.3,46.0,47.7,43.1,35.6,92,64,26,30.04,29.96,15,3,15,0.00
2013-11-10,69.6,54.3,45.1,50.0,44.1,37.0,88,70,38,30.12,30.03,12,4,12,0.00
2013-11-11,68.9,55.1,41.4,50.4,45.6,39.0,93,73,42,30.17,30.08,12,2,13,0.00
2013-11-12,73.0,59.4,50.0,50.0,47.0,43.3,82,65,37,30.27,30.16,13,2,13,0.00
2013-11-13,75.6,58.1,46.0,48.9,44.1,39.4,85,63,31,30.26,30.11,17,2,17,0.00
2013-11-14,72.0,55.0,46.9,53.4,47.9,43.3,94,78,46,30.12,29.90,20,5,20,0.00
2013-11-15,64.2,51.2,41.7,46.4,40.8,35.6,94,70,36,29.91,29.73,17,3,20,0.00
2013-11-16,62.2,51.5,42.3,49.1,42.5,35.6,86,73,43,29.95,29.79,18,6,18,0.00
2013-11-17,63.7,51.8,43.5,48.0,44.3,41.2,93,77,47,30.10,29.94,14,3,14,0.00
2013-11-18,59.2,49.8,42.3,46.2,43.5,40.1,93,80,58,30.15,30.08,19,3,19,0.00
2013-11-19,61.3,54.1,46.2,53.4,48.5,43.0,93,82,64,30.12,29.96,13,5,13,0.24
2013-11-20,60.6,55.3,50.7,55.8,53.2,49.6,97,93,82,29.96,29.85,16,4,17,0.89
2013-11-21,56.8,51.4,47.3,49.6,36.7,24.1,97,61,33,30.00,29.89,28,7,28,0.08
2013-11-22,63.0,52.2,48.6,25.5,20.0,14.0,36,28,21,30.04,29.93,32,9,32,0.00
2013-11-23,65.5,53.6,43.3,39.9,37.3,32.7,81,57,33,30.12,30.00,8,-20,8,0.00
2013-11-24,63.9,49.3,40.3,43.2,39.4,36.9,89,71,39,30.27,30.11,12,1,12,0.00
2013-11-25,62.2,49.1,40.5,45.1,41.3,37.4,92,76,50,30.34,30.26,13,2,13,0.00
2013-11-26,60.3,49.5,41.5,44.4,42.3,39.6,94,78,53,30.28,30.05,11,2,13,0.00
2013-11-27,62.6,50.5,42.6,47.8,44.1,40.6,94,80,57,30.04,29.85,14,2,14,0.00
2013-11-28,66.2,52.2,43.0,46.6,42.8,41.0,94,73,43,30.10,29.89,15,2,15,0.00
2013-11-29,70.0,53.1,43.5,44.2,41.4,39.2,87,68,35,30.24,30.10,11,2,11,0.00
2013-11-30,67.6,51.7,42.6,46.0,41.2,37.4,86,70,41,30.28,30.19,15,2,15,0.00
2013-12-1,68.4,52.7,42.4,43.9,41.7,39.2,91,70,37,30.35,30.22,15,2,16,0.00
2013-12-2,66.6,52.0,43.3,49.3,44.3,39.6,93,77,47,30.25,29.99,17,4,17,0.00
2013-12-3,52.2,45.8,34.3,51.1,38.9,22.1,96,78,47,29.99,29.85,16,-6,16,0.02
2013-12-4,48.9,38.6,30.7,29.3,22.3,13.8,79,54,30,30.10,29.94,17,2,18,0.00
2013-12-5,47.5,36.2,25.7,24.6,20.5,14.9,80,56,30,30.19,30.09,14,2,14,0.00
2013-12-6,49.8,40.8,29.8,43.7,30.7,21.9,92,69,39,30.20,29.94,25,6,27,0.16
2013-12-7,46.4,39.9,30.6,44.2,32.3,25.9,94,76,48,30.26,29.93,28,2,28,0.46
2013-12-8,41.5,33.9,28.2,29.1,23.7,18.0,91,68,48,30.33,30.23,16,4,19,0.00
2013-12-9,48.2,36.8,30.0,27.9,20.9,12.9,87,54,35,30.44,30.32,26,4,26,0.00
2013-12-10,51.1,36.9,26.1,32.7,27.9,21.4,88,72,42,30.43,30.23,13,2,14,0.00
2013-12-11,52.9,39.6,29.8,32.7,30.6,26.4,91,72,42,30.27,30.19,15,2,15,0.00
2013-12-12,58.3,41.8,30.7,36.5,32.7,28.8,94,73,38,30.28,30.18,12,2,12,0.00
2013-12-13,57.9,43.5,33.4,36.9,31.2,22.3,84,66,28,30.35,30.25,15,2,18,0.00
2013-12-14,58.5,44.0,35.6,37.4,35.0,32.9,93,73,43,30.40,30.32,15,2,15,0.00
2013-12-15,60.6,44.8,34.7,39.0,36.2,33.1,94,75,42,30.39,30.25,10,2,13,0.00
2013-12-16,64.9,47.6,36.9,40.1,37.0,34.2,91,70,36,30.27,30.14,14,2,14,0.00
2013-12-17,63.0,48.9,39.0,42.3,38.8,34.0,88,70,42,30.19,30.05,14,2,14,0.00
2013-12-18,63.0,50.7,44.1,43.9,40.9,35.4,87,71,39,30.05,29.80,17,3,17,0.00
2013-12-19,56.7,48.0,38.1,43.7,31.7,19.4,92,58,30,29.94,29.73,38,6,38,0.00
2013-12-20,59.4,47.9,39.6,29.7,15.9,4.3,59,30,13,30.02,29.93,28,4,28,0.00
2013-12-21,64.0,46.7,37.6,45.1,36.4,26.2,91,69,42,30.10,29.99,12,2,12,0.00
2013-12-22,64.2,49.6,39.6,40.3,37.0,34.0,93,66,33,30.31,30.10,18,2,19,0.00
2013-12-23,62.8,47.4,38.7,40.5,37.9,36.0,91,72,42,30.39,30.30,9,2,13,0.00
2013-12-24,67.5,52.9,38.5,40.5,34.5,21.4,89,56,20,30.36,30.21,17,4,23,0.00
2013-12-25,63.0,47.9,37.6,41.0,36.5,28.0,88,66,43,30.30,30.21,15,3,15,0.00
2013-12-26,65.7,47.4,36.5,41.5,38.0,34.2,92,73,38,30.28,30.18,14,2,14,0.00
2013-12-27,59.5,46.4,37.0,41.0,37.2,33.3,88,72,46,30.25,30.13,15,3,15,0.00
2013-12-28,64.2,50.6,33.3,36.1,28.7,20.7,85,50,22,30.16,30.04,23,5,25,0.00
2013-12-29,66.4,55.4,40.6,35.4,25.6,15.8,77,35,19,30.19,30.09,25,5,25,0.00
2013-12-30,65.8,47.4,36.1,36.0,33.4,27.9,83,62,25,30.27,30.18,10,2,10,0.00
2013-12-31,62.2,46.3,37.8,41.2,34.2,23.5,84,65,36,30.28,30.15,16,2,16,0.00
2014-1-1,66.0,47.4,35.8,38.1,32.3,25.0,85,61,26,30.23,30.13,12,2,12,0.00
2014-1-2,65.7,48.9,38.3,38.7,35.7,33.4,85,64,33,30.19,30.07,13,2,13,0.00